EW4330 Weather Reports


Display with metric or nautical units.
time (UTC)temp
F
wind
direction
speed
MPH
gust
MPH
rain 1hr
in
rain 24hr
in
rain mn
in
humidity
%
barometer
mb
20260503224526 55 0 2.0 2.0 0.00 0.00 0.00 71 1019.0
20260503224025 55 0 1.0 2.0 0.00 0.00 0.00 70 1019.0
20260503223527 55 0 2.0 2.0 0.00 0.00 0.00 69 1019.0
20260503223026 55 0 1.0 2.0 0.00 0.00 0.00 68 1019.0
20260503222525 55 270 2.0 2.0 0.00 0.00 0.00 68 1019.0
20260503222026 55 279 1.0 2.0 0.00 0.00 0.00 67 1019.0
20260503221027 54 270 2.0 3.0 0.00 0.00 0.00 67 1019.0
20260503220527 54 249 2.0 3.0 0.00 0.00 0.00 67 1019.0
20260503220026 54 180 2.0 3.0 0.00 0.00 0.00 67 1019.0
20260503215528 54 247 2.0 3.0 0.00 0.00 0.00 68 1018.0
20260503215026 55 263 1.0 3.0 0.00 0.00 0.00 69 1018.0
20260503214527 54 263 2.0 3.0 0.00 0.00 0.00 69 1018.0
20260503214026 55 246 1.0 3.0 0.00 0.00 0.00 69 1019.0
20260503213527 55 282 2.0 2.0 0.00 0.00 0.00 69 1019.0
20260503213028 55 270 1.0 2.0 0.00 0.00 0.00 69 1019.0
20260503212526 55 270 1.0 2.0 0.00 0.00 0.00 69 1018.0
20260503212025 55 252 1.0 2.0 0.00 0.00 0.00 69 1018.0
20260503211528 55 246 1.0 2.0 0.00 0.00 0.00 69 1018.0
20260503211027 54 260 1.0 2.0 0.00 0.00 0.00 68 1018.0
20260503205527 55 0 0.0 2.0 0.00 0.00 0.00 66 1018.0
20260503205026 56 357 2.0 2.0 0.00 0.00 0.00 66 1018.0
20260503204526 56 0 0.0 2.0 0.00 0.00 0.00 65 1018.0
20260503204026 56 0 0.0 2.0 0.00 0.00 0.00 65 1018.0
20260503203026 57 270 0.0 1.0 0.00 0.00 0.00 63 1018.0
20260503202525 57 270 1.0 2.0 0.00 0.00 0.00 63 1020.0
20260503202027 58 270 1.0 2.0 0.00 0.00 0.00 63 1020.0
20260503201529 58 270 2.0 2.0 0.00 0.00 0.00 64 1020.0
20260503201026 58 270 1.0 2.0 0.00 0.00 0.00 64 1019.0
20260503200525 57 263 2.0 3.0 0.00 0.00 0.00 64 1019.0
20260503200025 58 270 0.0 2.0 0.00 0.00 0.00 64 1019.0
20260503195527 58 231 2.0 2.0 0.00 0.00 0.00 64 1019.0
20260503194526 58 226 2.0 3.0 0.00 0.00 0.00 65 1019.0
20260503193527 58 244 2.0 5.0 0.00 0.00 0.00 66 1018.0
20260503193025 58 260 2.0 3.0 0.00 0.00 0.00 66 1018.0
20260503192525 58 246 2.0 5.0 0.00 0.00 0.00 66 1018.0
20260503192027 58 202 1.0 2.0 0.00 0.00 0.00 66 1018.0
20260503191527 58 247 2.0 3.0 0.00 0.00 0.00 66 1018.0
20260503191026 58 233 2.0 3.0 0.00 0.00 0.00 66 1018.0
20260503190528 58 237 1.0 2.0 0.00 0.00 0.00 66 1018.0
20260503190026 58 213 0.0 1.0 0.00 0.00 0.00 66 1018.0
20260503185527 58 174 0.0 1.0 0.00 0.00 0.00 66 1017.0
20260503185026 58 296 1.0 1.0 0.00 0.00 0.00 65 1017.0
20260503184525 58 178 1.0 2.0 0.00 0.00 0.00 65 1017.0
20260503184026 58 224 1.0 3.0 0.00 0.00 0.00 64 1017.0
20260503183026 59 270 0.0 1.0 0.00 0.00 0.00 63 1017.0
20260503182526 59 270 0.0 1.0 0.00 0.00 0.00 62 1017.0
20260503182026 59 194 1.0 2.0 0.00 0.00 0.00 61 1017.0
20260503181527 60 205 1.0 1.0 0.00 0.00 0.00 61 1017.0
20260503181026 60 163 1.0 2.0 0.00 0.00 0.00 60 1017.0
20260503180526 60 254 0.0 2.0 0.00 0.00 0.00 60 1017.0
20260503180028 60 122 1.0 2.0 0.00 0.00 0.00 59 1017.0
20260503175527 61 198 1.0 2.0 0.00 0.00 0.00 59 1017.0
20260503175026 61 72 1.0 3.0 0.00 0.00 0.00 58 1017.0
20260503174525 61 154 1.0 2.0 0.00 0.00 0.00 57 1017.0
20260503174027 61 211 0.0 2.0 0.00 0.00 0.00 56 1017.0
20260503173525 62 143 1.0 2.0 0.00 0.00 0.00 55 1017.0
20260503173025 62 136 1.0 2.0 0.00 0.00 0.00 55 1017.0
20260503172526 62 155 0.0 2.0 0.00 0.00 0.00 54 1017.0
20260503172027 62 160 0.0 2.0 0.00 0.00 0.00 54 1017.0
20260503171525 62 129 0.0 2.0 0.00 0.00 0.00 54 1017.0
20260503171028 62 132 0.0 1.0 0.00 0.00 0.00 53 1017.0
20260503170525 63 127 0.0 2.0 0.00 0.00 0.00 52 1017.0
20260503150527 65 153 3.0 5.0 0.00 0.00 0.00 47 1017.0
20260503131028 69 110 4.0 9.0 0.00 0.00 0.00 38 1019.0
20260503130524 69 92 3.0 7.0 0.00 0.00 0.00 38 1019.0
20260503110524 70 106 3.0 6.0 0.00 0.00 0.00 39 1019.0
20260503081525 62 99 5.0 6.0 0.00 0.00 0.00 63 1021.0
20260503081026 62 128 3.0 5.0 0.00 0.00 0.00 64 1021.0
20260503080525 62 84 3.0 6.0 0.00 0.00 0.00 65 1021.0
20260503072525 60 88 4.0 6.0 0.00 0.00 0.00 68 1021.0
20260503072025 60 158 2.0 5.0 0.00 0.00 0.00 68 1021.0
20260503071525 60 181 3.0 7.0 0.00 0.00 0.00 68 1021.0
20260503071029 60 88 3.0 7.0 0.00 0.00 0.00 69 1021.0
20260503055024 55 135 1.0 2.0 0.00 0.00 0.00 72 1021.0
20260503054025 55 96 1.0 2.0 0.00 0.00 0.00 72 1021.0
20260503053526 55 112 1.0 2.0 0.00 0.00 0.00 72 1021.0
20260503053024 54 156 1.0 2.0 0.00 0.00 0.00 72 1021.0
20260503052524 54 202 0.0 2.0 0.00 0.00 0.00 73 1020.0
20260503052025 54 202 0.0 0.0 0.00 0.00 0.00 73 1020.0
20260503050524 52 202 1.0 2.0 0.00 0.00 0.00 75 1020.0
20260503050024 52 202 1.0 2.0 0.00 0.00 0.00 75 1020.0
20260503045525 51 202 0.0 1.0 0.00 0.00 0.00 75 1020.0
20260503045025 50 202 0.0 0.0 0.00 0.00 0.00 75 1020.0
20260503044524 50 202 0.0 2.0 0.00 0.00 0.00 75 1020.0
20260503044025 49 202 1.0 2.0 0.00 0.00 0.00 75 1020.0
20260503043527 49 202 1.0 2.0 0.00 0.00 0.00 74 1020.0
20260503043025 49 270 0.0 1.0 0.00 0.00 0.00 74 1020.0
20260503042024 50 270 2.0 2.0 0.00 0.00 0.00 74 1020.0
20260503041525 49 270 1.0 2.0 0.00 0.00 0.00 74 1020.0
20260503041025 50 270 0.0 0.0 0.00 0.00 0.00 75 1020.0
20260503040525 50 0 2.0 2.0 0.00 0.00 0.00 75 1020.0
20260503034525 49 267 2.0 3.0 0.00 0.00 0.00 75 1020.0
20260503034025 49 270 0.0 2.0 0.00 0.00 0.00 75 1020.0
20260503033024 49 0 2.0 3.0 0.00 0.00 0.00 75 1020.0
20260503032525 49 0 1.0 2.0 0.00 0.00 0.00 76 1020.0
20260503031525 49 270 2.0 2.0 0.00 0.00 0.00 76 1020.0
20260503031026 48 270 2.0 2.0 0.00 0.00 0.00 76 1020.0
20260503030524 49 270 0.0 1.0 0.00 0.00 0.00 76 1020.0
20260503030024 49 270 2.0 2.0 0.00 0.00 0.00 76 1020.0
20260503025525 48 270 1.0 2.0 0.00 0.00 0.00 75 1020.0
20260503025025 49 270 1.0 2.0 0.00 0.00 0.00 75 1020.0
20260503024524 48 288 2.0 3.0 0.00 0.00 0.00 74 1020.0
20260503024026 48 270 0.0 1.0 0.00 0.00 0.00 73 1020.0
20260503023527 49 270 0.0 1.0 0.00 0.00 0.00 73 1020.0
20260503023025 49 270 1.0 1.0 0.00 0.00 0.00 72 1020.0
20260503022524 49 0 1.0 2.0 0.00 0.00 0.00 72 1020.0
20260503021526 50 0 2.0 2.0 0.00 0.00 0.00 70 1020.0
20260503021024 50 0 2.0 3.0 0.00 0.00 0.00 69 1020.0
20260503020524 50 270 2.0 3.0 0.00 0.00 0.00 69 1020.0
20260503015526 50 270 1.0 2.0 0.00 0.00 0.00 68 1020.0
20260503015025 50 280 1.0 3.0 0.00 0.00 0.00 68 1020.0
20260503014524 50 270 2.0 3.0 0.00 0.00 0.00 68 1020.0
20260503014025 50 326 2.0 3.0 0.00 0.00 0.00 68 1020.0
20260503013526 50 270 2.0 2.0 0.00 0.00 0.00 69 1020.0
20260503013024 50 270 2.0 2.0 0.00 0.00 0.00 69 1020.0
20260503012525 50 342 2.0 3.0 0.00 0.00 0.00 70 1020.0
20260503012025 49 270 2.0 2.0 0.00 0.00 0.00 70 1020.0
20260503011526 49 255 1.0 2.0 0.00 0.00 0.00 69 1020.0
20260503011025 49 225 0.0 0.0 0.00 0.00 0.00 68 1020.0
20260503010024 50 270 1.0 2.0 0.00 0.00 0.00 68 1020.0
20260503005024 50 0 1.0 3.0 0.00 0.00 0.00 67 1020.0
20260503004524 50 270 3.0 3.0 0.00 0.00 0.00 66 1020.0
20260503004023 50 321 2.0 3.0 0.00 0.00 0.00 67 1020.0
20260503003525 50 248 1.0 2.0 0.00 0.00 0.00 66 1020.0
20260503003026 50 270 1.0 2.0 0.00 0.00 0.00 66 1020.0
20260503002524 50 0 0.0 2.0 0.00 0.00 0.00 66 1020.0
20260503002024 50 298 2.0 3.0 0.00 0.00 0.00 66 1020.0
20260503001526 50 270 1.0 2.0 0.00 0.00 0.00 66 1020.0
20260503001024 50 270 2.0 2.0 0.00 0.00 0.00 66 1021.0
20260503000024 50 90 0.0 0.0 0.00 0.00 0.00 64 1021.0
20260502235525 50 90 0.0 0.0 0.00 0.00 0.00 63 1021.0
20260502235025 51 90 0.0 0.0 0.00 0.00 0.00 62 1021.0
20260502234023 52 0 1.0 3.0 0.00 0.00 0.00 61 1021.0
20260502233026 53 0 3.0 3.0 0.00 0.00 0.00 61 1021.0
20260502231525 53 270 2.0 3.0 0.00 0.00 0.00 62 1021.0
20260502231024 53 0 2.0 3.0 0.00 0.00 0.00 62 1021.0
20260502230524 53 0 2.0 3.0 0.00 0.00 0.00 62 1021.0
20260502230024 52 0 2.0 3.0 0.00 0.00 0.00 62 1021.0
20260502225024 52 270 1.0 2.0 0.00 0.00 0.00 62 1021.0